Location: Allison's Woods
(35.8809°N, 80.8140°W)
Time: 04:40:47
(UTC-04:00)

Iridium 39 - Visible Passes

Search period start: 29 July 2014 00:00
Search period end: 08 August 2014 00:00
Orbit: 776 x 779 km, 86.4° (Epoch: 28 July)

Date Brightness Start Highest point End Pass type
(mag) Time Alt. Az. Time Alt. Az. Time Alt. Az.
29 Jul 7.3 00:09:57 10° NNW 00:14:01 35° WNW 00:14:01 35° WNW visible
29 Jul 8.1 21:58:53 10° ENE 22:00:03 11° ENE 22:00:10 11° ENE visible
29 Jul 6.3 23:36:06 10° N 23:40:39 64° NW 23:40:39 64° NW visible
30 Jul 6.2 23:02:37 10° N 23:07:18 57° ENE 23:07:18 57° ENE visible
31 Jul 8.5 00:45:32 10° NW 00:47:46 13° WNW 00:47:46 13° WNW visible
31 Jul 7.0 22:29:32 10° NNE 22:33:57 31° ENE 22:33:57 31° ENE visible
01 Aug 7.7 00:10:27 10° NNW 00:14:25 25° W 00:14:25 25° W visible
01 Aug 7.7 21:57:08 10° NE 22:00:21 16° ENE 22:00:37 16° E visible
01 Aug 6.7 23:36:19 10° NNW 23:41:05 48° WNW 23:41:05 48° WNW visible
02 Aug 5.9 23:02:38 10° N 23:07:46 86° NNE 23:07:46 86° NNE visible
03 Aug 6.3 22:29:18 10° NNE 22:34:17 45° E 22:34:27 45° E visible
04 Aug 8.2 00:11:15 10° NW 00:14:33 17° W 00:14:55 17° W visible
04 Aug 7.2 21:56:25 10° NNE 22:00:36 24° E 22:01:08 24° E visible
04 Aug 7.3 23:36:42 10° NNW 23:41:17 32° W 23:41:37 32° W visible
05 Aug 7.9 21:24:36 10° NE 21:26:46 13° ENE 21:27:51 12° E visible
05 Aug 6.2 23:02:45 10° N 23:07:54 63° W 23:08:20 60° WSW visible
06 Aug 5.9 22:29:12 10° N 22:34:24 68° E 22:35:03 61° SE visible
07 Aug 8.6 00:12:52 10° WNW 00:14:25 11° WNW 00:15:32 11° W visible
07 Aug 6.7 21:56:01 10° NNE 22:00:47 35° E 22:01:47 32° ESE visible
07 Aug 7.9 23:37:17 10° NNW 23:41:13 22° W 23:42:16 21° W visible
